M I D A S
Marine Information and Data Acquisition System
Tripno 58 of the Zeeleeuw from 2001-07-30 06:34:18 to 2001-07-30 16:30:00
Back to CruiseResearch ActivitiesStationsMapUnderway DataData graphs

EquipmentUnitsComments
TimeDGPSUTC
LatitudeDGPSDM.mWGS84
LongitudeDGPSDM.mWGS84
SpeedMeteo Stationm/sRelative wind speed
DirectionMeteo StationdegRelative wind direction
TemperatureMeteo Stationdeg CelciusAir temperature
PressureMeteo StationPaAtmospheric pressure
HumidityMeteo Station%Relative humidity
Missing or incorrect values are displayed as -999
Metereological data collected by the RV Zeeleeuw from 2001-07-30 06:34:18 to 2001-07-30 16:30:00
                                                                                    Next 1000 lines
Time Latitude Longitude Speed Direction Temperature Pressure Humidity
2001-07-30 06:34:28 51°13.675 2°55.925 2.9 216 21 102250 74
2001-07-30 06:34:34 51°13.675 2°55.925 2.7 213 21 102250 74
2001-07-30 06:34:39 51°13.675 2°55.925 2.5 209 21 102250 74
2001-07-30 06:34:44 51°13.675 2°55.925 2.8 208 21 102250 74
2001-07-30 06:34:49 51°13.675 2°55.925 2.4 206 21 102250 74
2001-07-30 06:34:52 51°13.675 2°55.925 3.3 202 21 102250 74
2001-07-30 06:34:59 51°13.675 2°55.925 3.3 202 21 102250 74
2001-07-30 06:35:04 51°13.675 2°55.925 3.3 202 21 102250 74
2001-07-30 06:35:09 51°13.675 2°55.925 3.3 202 21 102250 74
2001-07-30 06:35:13 51°13.675 2°55.925 3.3 202 21 102250 74
2001-07-30 06:35:19 51°13.675 2°55.925 3.3 202 21 102250 74
2001-07-30 06:35:24 51°13.675 2°55.925 3.3 202 21 102250 74
2001-07-30 06:35:29 51°13.675 2°55.925   210 21 102250 74
2001-07-30 06:35:59 51°13.675 2°55.925 2.7 212 20.9 -999 74
2001-07-30 06:36:04 51°13.675 2°55.925 3.3 218 20.9 -999 74
2001-07-30 06:36:09 51°13.676 2°55.925 3.3 216 21 -999 75
2001-07-30 06:36:14 51°13.676 2°55.925 3 214 21 102250 74
2001-07-30 06:36:19 51°13.676 2°55.925 3.9 227 21 102250 74
2001-07-30 06:36:24 51°13.676 2°55.925 3.7 135 21 102250 74
2001-07-30 06:36:29 51°13.676 2°55.925 3.9 225 21 102250 74
2001-07-30 06:36:34 51°13.676 2°55.925 4.2 231 21 102250 74
2001-07-30 06:36:39 51°13.676 2°55.925 4.3 221 21 102260 74
2001-07-30 06:36:44 51°13.676 2°55.925 3.9 218 21 102250 74
2001-07-30 06:36:49 51°13.676 2°55.925 3.5 224 21 102250 74
2001-07-30 06:36:54 51°13.676 2°55.925 2.9 213 21 102250 74
2001-07-30 06:36:59 51°13.676 2°55.924 3.9 207 21 102250 74
2001-07-30 06:37:03 51°13.676 2°55.924 4 207 21 102250 74
2001-07-30 06:37:09 51°13.676 2°55.924 3.2 211 21 102250 74
2001-07-30 06:37:14 51°13.676 2°55.924 2.7 220 21 102250 74
2001-07-30 06:37:19 51°13.676 2°55.924 2.8 217 21 102250 75
2001-07-30 06:37:24 51°13.676 2°55.924 3.1 225 21 102250 74
2001-07-30 06:37:29 51°13.676 2°55.924 3.2 213 21 102250 74
2001-07-30 06:37:34 51°13.676 2°55.924 3.5 208 21 102250 74
2001-07-30 06:37:39 51°13.676 2°55.924 2.4 205 21 102260 74
2001-07-30 06:37:44 51°13.676 2°55.924 2.8 214 21 102260 74
2001-07-30 06:37:49 51°13.676 2°55.924 2.6 208 21 102260 74
2001-07-30 06:37:54 51°13.676 2°55.924 3.4 205 21 102260 75
2001-07-30 06:37:59 51°13.676 2°55.924 2.4 208 21 102260 75
2001-07-30 06:38:04 51°13.676 2°55.924 2.1 211 21 102260 75
2001-07-30 06:38:09 51°13.676 2°55.924 2.1 205 21 102250 75
2001-07-30 06:38:14 51°13.676 2°55.924 2.4 211 21 102250 75
2001-07-30 06:38:19 51°13.676 2°55.924 2.5 216 21 102250 75
2001-07-30 06:38:24 51°13.676 2°55.924 2.7 217 21 102260 75
2001-07-30 06:38:28 51°13.676 2°55.925 2.8 208 21 102260 75
2001-07-30 06:38:33 51°13.676 2°55.925 2.8 206 21 102260 75
2001-07-30 06:38:37 51°13.676 2°55.924 2.5 210 21 102250 74
2001-07-30 06:38:41 51°13.676 2°55.924 2.5 197 21 102250 74
2001-07-30 06:38:45 51°13.676 2°55.924 2.6 203 21 102250 74
2001-07-30 06:38:49 51°13.676 2°55.924 3.2 213 21 102250 74
2001-07-30 06:38:55 51°13.676 2°55.924 2.5 226 21 102260 75
2001-07-30 06:39:00 51°13.676 2°55.924 3.1 222 21 102250 75
2001-07-30 06:39:05 51°13.676 2°55.924 3.4 210 21 102250 75
2001-07-30 06:39:10 51°13.676 2°55.924 2.8 207 21 102250 75
2001-07-30 06:39:15 51°13.676 2°55.924 2.7 210 21 102250 75
2001-07-30 06:39:20 51°13.676 2°55.924 3 215 21 102250 75
2001-07-30 06:39:25 51°13.676 2°55.924 2.9 203 21 102260 74
2001-07-30 06:39:29 51°13.676 2°55.924 3.2 220 21 102260 74
2001-07-30 06:39:35 51°13.676 2°55.924 3.3 216 21 102260 74
2001-07-30 06:39:40 51°13.676 2°55.924 2.7 223 21 102250 74
2001-07-30 06:39:45 51°13.676 2°55.924 2.4 203 21 102250 74
2001-07-30 06:39:50 51°13.676 2°55.924 3.2 216 21 102250 74
2001-07-30 06:39:55 51°13.676 2°55.924 2 222 21 102260 74
2001-07-30 06:39:59 51°13.676 2°55.924 2.7 207 21 102260 74
2001-07-30 06:40:05 51°13.676 2°55.924 2.7 199 21 102250 75
2001-07-30 06:40:10 51°13.676 2°55.924 2.1 208 21 102260 74
2001-07-30 06:40:15 51°13.676 2°55.924 2.3 211 21 102260 74
2001-07-30 06:40:19 51°13.676 2°55.924 2.1 211 21 102260 74
2001-07-30 06:40:25 51°13.676 2°55.924 2.3 216 21 102250 74
2001-07-30 06:40:30 51°13.676 2°55.924 2.9 203 21 102250 74
2001-07-30 06:40:35 51°13.676 2°55.924 2.8 207 21 102260 74
2001-07-30 06:40:40 51°13.676 2°55.924 3 207 21 102260 75
2001-07-30 06:40:45 51°13.676 2°55.924 2.2 210 21 102260 75
2001-07-30 06:40:49 51°13.676 2°55.924 3.2 216 21 102260 75
2001-07-30 06:40:53 51°13.676 2°55.924 3 209 21 102260 75
2001-07-30 06:40:59 51°13.676 2°55.924 2.7 216 21 102260 75
2001-07-30 06:41:05 51°13.676 2°55.924 2.7 214 21 102260 75
2001-07-30 06:41:10 51°13.676 2°55.924 3.6 208 21 102260 75
2001-07-30 06:41:15 51°13.676 2°55.924 3.3 216 21 102250 75
2001-07-30 06:41:20 51°13.676 2°55.924 3.4 207 21 102260 75
2001-07-30 06:41:25 51°13.676 2°55.924 3 211 21 102260 75
2001-07-30 06:41:29 51°13.676 2°55.924 3.9 214 21 102260 75
2001-07-30 06:41:35 51°13.676 2°55.924 3.1 210 21 102250 75
2001-07-30 06:41:39 51°13.676 2°55.924 4 210 21 102260 74
2001-07-30 06:41:45 51°13.676 2°55.924 3.5 208 21 102260 74
2001-07-30 06:41:50 51°13.676 2°55.924 3.7 210 21 102250 74
2001-07-30 06:41:55 51°13.675 2°55.925 3 209 21 102250 74
2001-07-30 06:42:00 51°13.676 2°55.924 3.2 203 21 102260 75
2001-07-30 06:42:05 51°13.676 2°55.924 3.2 201 21 102260 75
2001-07-30 06:42:09 51°13.676 2°55.924 2.4 209 21 102260 75
2001-07-30 06:42:15 51°13.676 2°55.924 2.7 209 21 102250 75
2001-07-30 06:42:20 51°13.676 2°55.924 2.2 210 21 102250 75
2001-07-30 06:42:25 51°13.676 2°55.924 2.9 194 21 102250 75
2001-07-30 06:42:30 51°13.676 2°55.924 2.7 217 21 102260 74
2001-07-30 06:42:35 51°13.676 2°55.924 2.8 224 21 102260 74
2001-07-30 06:42:40 51°13.676 2°55.924 2.9 211 21 102260 74
2001-07-30 06:42:45 51°13.676 2°55.924 2.8 221 21 102250 74
2001-07-30 06:42:49 51°13.676 2°55.924 2.6 215 21 102250 74
2001-07-30 06:42:55 51°13.676 2°55.924 2.2 206 21 102260 74
2001-07-30 06:43:00 51°13.676 2°55.924 2.8 205 21 102260 74
2001-07-30 06:43:05 51°13.676 2°55.924 2.8 211 21 102250 75
2001-07-30 06:43:09 51°13.676 2°55.924 3.1 207 21 102250 75
2001-07-30 06:43:15 51°13.676 2°55.924 2.6 211 21 102250 75
2001-07-30 06:43:20 51°13.676 2°55.924 3 207 21 102250 75
2001-07-30 06:43:25 51°13.676 2°55.924 2.6 190 21 102250 74
2001-07-30 06:43:29 51°13.676 2°55.924 2.7 207 21 102250 74
2001-07-30 06:43:35 51°13.676 2°55.924 3 212 21 102250 74
2001-07-30 06:43:39 51°13.676 2°55.924 3.5 226 21 102260 75
2001-07-30 06:43:45 51°13.676 2°55.924 3.2 208 21 102260 75
2001-07-30 06:43:49 51°13.676 2°55.924 3.5 205 21 102260 75
2001-07-30 06:43:55 51°13.676 2°55.924 4 215 21 102260 74
2001-07-30 06:44:00 51°13.676 2°55.924 3.7 209 21 102260 74
2001-07-30 06:44:05 51°13.676 2°55.924 3.7 218 21.1 102250 75
2001-07-30 06:44:10 51°13.676 2°55.924 2.6 207 21.1 102250 75
2001-07-30 06:44:15 51°13.676 2°55.924 3.8 208 21.1 102250 74
2001-07-30 06:44:19 51°13.676 2°55.924 3.5 201 21 102250 74
2001-07-30 06:44:25 51°13.676 2°55.924 3.5 209 21 102250 74
2001-07-30 06:44:30 51°13.676 2°55.924 3.2 210 21 102250 74
2001-07-30 06:44:33 51°13.676 2°55.924 3.7 212 21 102260 74
2001-07-30 06:44:39 51°13.676 2°55.924 3.7 205 21 102260 74
2001-07-30 06:44:43 51°13.676 2°55.924 2.9 204 21 102250 74
2001-07-30 06:44:49 51°13.676 2°55.924 2.7 215 21 102250 74
2001-07-30 06:44:55 51°13.676 2°55.924 2.4 316 21 102250 74
2001-07-30 06:44:59 51°13.676 2°55.924 2.8 217 21 102250 74
2001-07-30 06:45:05 51°13.676 2°55.924 2.7 212 21 102250 74
2001-07-30 06:45:10 51°13.676 2°55.924 3 223 21 102250 74
2001-07-30 06:45:15 51°13.676 2°55.924 2.4 214 21 102250 74
2001-07-30 06:45:20 51°13.676 2°55.924 2.9 218 21 102250 74
2001-07-30 06:45:25 51°13.676 2°55.924 2.6 230 21 102250 74
2001-07-30 06:45:30 51°13.676 2°55.924 3.6 234 21 102250 74
2001-07-30 06:45:35 51°13.676 2°55.924 3.2 242 21 102250 74
2001-07-30 06:45:39 51°13.676 2°55.924 3.6 231 21 102250 74
2001-07-30 06:45:45 51°13.676 2°55.924 3.1 232 21 102250 74
2001-07-30 06:45:50 51°13.676 2°55.924 3.7 252 21 102250 74
2001-07-30 06:45:55 51°13.676 2°55.924 3.1 218 21 102250 74
2001-07-30 06:46:00 51°13.676 2°55.924 3.2 215 21.1 102250 74
2001-07-30 06:46:05 51°13.676 2°55.924 2.7 210 21.1 102250 74
2001-07-30 06:46:10 51°13.676 2°55.924 2.8 220 21.1 102250 74
2001-07-30 06:46:15 51°13.676 2°55.924 2.9 213 21 102250 74
2001-07-30 06:46:19 51°13.676 2°55.924 3.2 214 21 102250 74
2001-07-30 06:46:25 51°13.676 2°55.924 3 210 21.1 102250 74
2001-07-30 06:46:29 51°13.676 2°55.924 3.7 207 21.1 102250 74
2001-07-30 06:46:35 51°13.676 2°55.924 3.7 206 21.1 102250 74
2001-07-30 06:46:40 51°13.676 2°55.924 3.8 224 21.1 102250 74
2001-07-30 06:46:45 51°13.676 2°55.924 3.7 134 21.1 102250 74
2001-07-30 06:46:50 51°13.676 2°55.924 3.3 209 21.1 102250 74
2001-07-30 06:46:54 51°13.676 2°55.924 3.2 202 21.1 102250 74
2001-07-30 06:46:59 51°13.676 2°55.925 2.9 217 21.1 102250 74
2001-07-30 06:47:05 51°13.676 2°55.925 2.9 218 21.1 102250 74
2001-07-30 06:47:10 51°13.676 2°55.925 2.4 222 21.1 102250 74
2001-07-30 06:47:15 51°13.676 2°55.925 2.3 214 21.1 102250 74
2001-07-30 06:47:19 51°13.676 2°55.925 3.3 215 21.1 102250 74
2001-07-30 06:47:24 51°13.675 2°55.925 3.6 258 21.1 102250 74
2001-07-30 06:47:29 51°13.675 2°55.924 3.3 232 21.1 102250 75
2001-07-30 06:47:35 51°13.676 2°55.924 4.4 247 21.1 102250 75
2001-07-30 06:47:39 51°13.676 2°55.924 4.2 234 21.1 102250 75
2001-07-30 06:47:45 51°13.676 2°55.924 3.8 232 21.1 102250 75
2001-07-30 06:47:50 51°13.676 2°55.924 3.3 226 21.1 102250 75
2001-07-30 06:47:55 51°13.676 2°55.924 3.8 235 21.1 102250 75
2001-07-30 06:47:59 51°13.676 2°55.924 3.8 239 21.1 102250 75
2001-07-30 06:48:05 51°13.676 2°55.924 3.5 254 21.1 102250 74
2001-07-30 06:48:09 51°13.676 2°55.924 3.4 245 21.1 102260 74
2001-07-30 06:48:15 51°13.676 2°55.924 3.2 235 21.1 102260 74
2001-07-30 06:48:20 51°13.676 2°55.924 3.4 233 21.1 102260 74
2001-07-30 06:48:25 51°13.676 2°55.924 3 243 21.1 102260 74
2001-07-30 06:48:30 51°13.676 2°55.924 3 226 21.1 102260 74
2001-07-30 06:48:35 51°13.676 2°55.924 3 223 21.1 102250 74
2001-07-30 06:48:39 51°13.676 2°55.924 3.3 236 21.1 102250 74
2001-07-30 06:48:45 51°13.676 2°55.924 3.6 232 21.1 102250 74
2001-07-30 06:48:50 51°13.676 2°55.924 3.8 230 21.1 102250 74
2001-07-30 06:48:55 51°13.676 2°55.924 2.9 238 21.1 102250 74
2001-07-30 06:48:59 51°13.676 2°55.924 2.3 218 21.1 102260 75
2001-07-30 06:49:05 51°13.676 2°55.924 2.6 205 21.1 102260 75
2001-07-30 06:49:10 51°13.676 2°55.924 1.9 212 21.1 102260 75
2001-07-30 06:49:15 51°13.676 2°55.924 1.8 218 21.1 102260 74
2001-07-30 06:49:19 51°13.676 2°55.924 2.1 212 21.1 102260 74
2001-07-30 06:49:23 51°13.676 2°55.924 2.8 218 21.1 102260 74
2001-07-30 06:49:30 51°13.676 2°55.924 3.5 198 21.1 102260 75
2001-07-30 06:49:35 51°13.676 2°55.924 3.3 200 21.1 102260 75
2001-07-30 06:49:39 51°13.676 2°55.924 4 205 21.1 102260 75
2001-07-30 06:49:45 51°13.676 2°55.924 3.6 210 21.1 102260 75
2001-07-30 06:49:50 51°13.676 2°55.924 3.7 205 21.1 102260 75
2001-07-30 06:49:55 51°13.676 2°55.924 2.9 205 21.1 102260 75
2001-07-30 06:49:59 51°13.676 2°55.924 3.7 209 21.1 102260 74
2001-07-30 06:50:05 51°13.676 2°55.924 3.3 210 21.1 102260 74
2001-07-30 06:50:10 51°13.676 2°55.924 3.3 204 21.1 102260 74
2001-07-30 06:50:15 51°13.676 2°55.924 3.4 197 21.1 102260 74
2001-07-30 06:50:19 51°13.676 2°55.924 2.7 208 21.1 102260 74
2001-07-30 06:50:24 51°13.676 2°55.924 2.1 207 21.1 102260 74
2001-07-30 06:50:29 51°13.676 2°55.924 3.4 205 21.1 102260 74
2001-07-30 06:50:35 51°13.677 2°55.924 3.4 212 21.1 102260 74
2001-07-30 06:50:40 51°13.677 2°55.924 2.4 217 21.1 102260 74
2001-07-30 06:50:44 51°13.677 2°55.924 3.3 227 21.1 102260 74
2001-07-30 06:50:49 51°13.677 2°55.924 1.6 237 21.1 102260 74
2001-07-30 06:50:55 51°13.677 2°55.924 3.1 211 21.1 102260 74
2001-07-30 06:51:00 51°13.677 2°55.924 3 206 21.1 102250 74
2001-07-30 06:51:05 51°13.677 2°55.924 2.5 207 21.1 102250 74
2001-07-30 06:51:10 51°13.677 2°55.924 3.7 220 21.1 102260 74
2001-07-30 06:51:15 51°13.677 2°55.924 2.8 205 21.1 102260 74
2001-07-30 06:51:20 51°13.677 2°55.924 2.7 211 21.1 102260 74
2001-07-30 06:51:25 51°13.677 2°55.924 2.9 209 21.1 102260 74
2001-07-30 06:51:29 51°13.677 2°55.924 2.1 211 21.1 102260 74
2001-07-30 06:51:35 51°13.677 2°55.924 2.6 218 21.1 102260 74
2001-07-30 06:51:39 51°13.677 2°55.924 2.9 216 21.1 102260 74
2001-07-30 06:51:43 51°13.677 2°55.924 2.2 222 21.1 102260 74
2001-07-30 06:51:50 51°13.678 2°55.924 2.7 217 21.1 102260 74
2001-07-30 06:51:55 51°13.678 2°55.924 3.7 211 21.1 102260 74
2001-07-30 06:51:59 51°13.678 2°55.924 3.1 217 21.1 102260 74
2001-07-30 06:52:05 51°13.678 2°55.924 3.3 205 21.1 102260 74
2001-07-30 06:52:09 51°13.678 2°55.924 4.1 192 21.1 102260 74
2001-07-30 06:52:15 51°13.678 2°55.924 2.8 224 21.1 102260 75
2001-07-30 06:52:20 51°13.678 2°55.924 3.7 190 21.1 102260 74
2001-07-30 06:52:25 51°13.678 2°55.924 3.7 197 21.1 102260 74
2001-07-30 06:52:30 51°13.678 2°55.924 4.2 204 21.1 102260 74
2001-07-30 06:52:33 51°13.678 2°55.924 3.5 212 21.1 102260 74
2001-07-30 06:52:39 51°13.678 2°55.924 2.6 228 21.1 102250 74
2001-07-30 06:52:45 51°13.678 2°55.924 3.3 208 21.1 102250 74
2001-07-30 06:52:50 51°13.678 2°55.924 3.5 208 21.1 102250 74
2001-07-30 06:52:55 51°13.678 2°55.924 3.2 205 21.1 102250 74
2001-07-30 06:52:59 51°13.678 2°55.924 3.2 227 21.1 102250 74
2001-07-30 06:53:05 51°13.678 2°55.924 3.2 215 21.1 102250 74
2001-07-30 06:53:10 51°13.678 2°55.924 2.7 203 21.1 102250 74
2001-07-30 06:53:15 51°13.678 2°55.924 2.6 195 21.1 102260 74
2001-07-30 06:53:20 51°13.678 2°55.924 2.4 214 21.1 102260 74
2001-07-30 06:53:25 51°13.678 2°55.924 2.7 210 21.1 102260 74
2001-07-30 06:53:30 51°13.678 2°55.924 3.5 229 21.1 102260 75
2001-07-30 06:53:35 51°13.678 2°55.924 2.4 212 21.1 102260 75
2001-07-30 06:53:40 51°13.678 2°55.924 2.7 217 21.1 102260 75
2001-07-30 06:53:45 51°13.678 2°55.924 2.8 205 21.1 102260 75
2001-07-30 06:53:50 51°13.678 2°55.924 2.9 205 21.1 102260 75
2001-07-30 06:53:55 51°13.679 2°55.924 3.9 207 21.1 102260 74
2001-07-30 06:54:00 51°13.679 2°55.924 3.3 206 21.1 102260 74
2001-07-30 06:54:05 51°13.679 2°55.924 2.8 205 21.1 102260 74
2001-07-30 06:54:09 51°13.679 2°55.924 3.7 216 21.1 102260 74
2001-07-30 06:54:15 51°13.679 2°55.924 3.2 206 21.1 102260 74
2001-07-30 06:54:19 51°13.679 2°55.924 2.9 211 21.1 102260 74
2001-07-30 06:54:25 51°13.679 2°55.924 3.7 238 21.1 102260 74
2001-07-30 06:54:30 51°13.678 2°55.924 3.1 237 21.1 102260 74
2001-07-30 06:54:35 51°13.678 2°55.924 3.8 239 21.1 102260 74
2001-07-30 06:54:40 51°13.678 2°55.924 3 225 21.1 102260 74
2001-07-30 06:54:45 51°13.678 2°55.924 3.5 242 21.1 102260 74
2001-07-30 06:54:49 51°13.678 2°55.924 3 246 21.1 102260 74
2001-07-30 06:54:55 51°13.678 2°55.924 3.2 237 21.1 102250 74
2001-07-30 06:55:00 51°13.679 2°55.924 3.2 230 21.1 102260 74
2001-07-30 06:55:05 51°13.679 2°55.924 2.6 218 21.1 102260 74
2001-07-30 06:55:09 51°13.679 2°55.924 2.2 216 21.1 102260 74
2001-07-30 06:55:15 51°13.679 2°55.924 2.4 227 21.1 102260 74
2001-07-30 06:55:20 51°13.679 2°55.924 2.3 245 21.1 102260 74
2001-07-30 06:55:23 51°13.679 2°55.924 2.2 225 21.1 102260 74
2001-07-30 06:55:29 51°13.679 2°55.924 2.8 234 21.1 102260 74
2001-07-30 06:55:33 51°13.678 2°55.924 2.7 226 21.1 102260 74
2001-07-30 06:55:40 51°13.679 2°55.924 2.8 217 21.1 102260 74
2001-07-30 06:55:45 51°13.678 2°55.924 2.7 211 21.1 102260 74
2001-07-30 06:55:49 51°13.678 2°55.924 2.9 215 21.1 102260 74
2001-07-30 06:55:55 51°13.678 2°55.924 2.4 211 21.1 102260 74
2001-07-30 06:56:00 51°13.678 2°55.924 2.9 200 21.1 102260 74
2001-07-30 06:56:05 51°13.678 2°55.924 2.9 221 21.1 102260 74
2001-07-30 06:56:09 51°13.678 2°55.924 3.6 206 21.1 102260 74
2001-07-30 06:56:15 51°13.678 2°55.924 3.8 207 21.1 102260 75
2001-07-30 06:56:20 51°13.677 2°55.924 3.3 194 21.1 102260 75
2001-07-30 06:56:25 51°13.677 2°55.924 2.8 210 21.1 102260 75
2001-07-30 06:56:29 51°13.677 2°55.924 2.8 211 21.1 102260 75
2001-07-30 06:56:35 51°13.676 2°55.924 3.7 211 21.1 102260 75
2001-07-30 06:56:40 51°13.676 2°55.924 3.8 208 21.1 102260 75
2001-07-30 06:56:43 51°13.676 2°55.924 3.6 220 21.2 102260 75
2001-07-30 06:56:50 51°13.676 2°55.924 2.5 134 21.1 102260 74
2001-07-30 06:56:55 51°13.676 2°55.924 4.4 239 21.1 102260 74
2001-07-30 06:57:00 51°13.676 2°55.924 4.2 215 21.1 102260 75
2001-07-30 06:57:05 51°13.676 2°55.924 4.6 217 21.1 102260 75
2001-07-30 06:57:09 51°13.676 2°55.924 4.9 315 21.1 102260 75
2001-07-30 06:57:15 51°13.675 2°55.924 3.1 217 21.1 102260 75
2001-07-30 06:57:19 51°13.675 2°55.924 3.7 226 21.1 102260 75
2001-07-30 06:57:24 51°13.675 2°55.924 3.6 209 21.1 102260 75
2001-07-30 06:57:30 51°13.675 2°55.924 4 228 21.1 102260 74
2001-07-30 06:57:35 51°13.675 2°55.924 3.8 227 21.1 102260 74
2001-07-30 06:57:39 51°13.675 2°55.924 3.9 217 21.1 102260 74
2001-07-30 06:57:45 51°13.675 2°55.924 3.2 212 21.1 102260 74
2001-07-30 06:57:50 51°13.675 2°55.924 4.1 207 21.1 102260 74
2001-07-30 06:57:55 51°13.675 2°55.924 3.6 203 21.1 102260 74
2001-07-30 06:57:59 51°13.675 2°55.924 3.5 217 21.1 102260 74
2001-07-30 06:58:05 51°13.675 2°55.924 3.5 217 21.1 102260 74
2001-07-30 06:58:10 51°13.675 2°55.924 3.3 214 21.1 102260 74
2001-07-30 06:58:15 51°13.676 2°55.924 3.2 222 21.1 102260 74
2001-07-30 06:58:19 51°13.676 2°55.924 2.8 208 21.1 102260 74
2001-07-30 06:58:25 51°13.676 2°55.924 2.8 217 21.1 102260 74
2001-07-30 06:58:30 51°13.676 2°55.924 2.7 206 21.1 102260 74
2001-07-30 06:58:35 51°13.676 2°55.924 2.7 206 21.1 102260 74
2001-07-30 06:58:39 51°13.676 2°55.924 2.6 211 21.1 102260 74
2001-07-30 06:58:45 51°13.676 2°55.924 3.9 205 21.1 102260 74
2001-07-30 06:58:50 51°13.676 2°55.924 3.7 185 21.1 102260 75
2001-07-30 06:58:55 51°13.676 2°55.924 3 207 21.1 102260 75
2001-07-30 06:58:59 51°13.676 2°55.924 2.6 216 21.1 102260 75
2001-07-30 06:59:05 51°13.676 2°55.924 2.7 209 21.1 102260 75
2001-07-30 06:59:10 51°13.676 2°55.924 3.4 210 21.1 102260 75
2001-07-30 06:59:15 51°13.676 2°55.924 2.8 205 21.1 102260 75
2001-07-30 06:59:29 51°13.676 2°55.924 2.9 214 -999 -999 -999
2001-07-30 06:59:33 51°13.676 2°55.924 3.1 209 21.1 102260 75
2001-07-30 06:59:39 51°13.676 2°55.924 3.1 207 21.1 102260 75
2001-07-30 06:59:43 51°13.676 2°55.924 3.3 198 21.1 102260 75
2001-07-30 06:59:49 51°13.676 2°55.924 3.3 211 21.1 102260 75
2001-07-30 06:59:53 51°13.676 2°55.924 2.9 207 21.1 102260 75
2001-07-30 06:59:59 51°13.676 2°55.924 3 199 21.1 102260 75
2001-07-30 07:00:03 51°13.676 2°55.924 2.8 193 21.1 102260 75
2001-07-30 07:00:09 51°13.676 2°55.924 2.9 206 21.1 102260 75
2001-07-30 07:00:13 51°13.676 2°55.924 2.5 216 21.1 102260 75
2001-07-30 07:00:19 51°13.676 2°55.924 2.4 209 21.1 102260 75
2001-07-30 07:00:23 51°13.676 2°55.924 2.4 211 21.1 102260 75
2001-07-30 07:00:29 51°13.676 2°55.924 3.3 200 21.1 102260 75
2001-07-30 07:00:33 51°13.676 2°55.924 3 200 21.1 102260 75
2001-07-30 07:00:39 51°13.676 2°55.924 2.6 204 21.1 102260 75
2001-07-30 07:00:43 51°13.676 2°55.924 2.5 203 21.1 102260 75
2001-07-30 07:00:49 51°13.676 2°55.924 2.1 212 21.1 102260 75
2001-07-30 07:00:53 51°13.676 2°55.924 1.9 198 21.1 102260 74
2001-07-30 07:00:59 51°13.676 2°55.924 2.2 198 21.1 102260 74
2001-07-30 07:01:04 51°13.676 2°55.924 2.4 207 21.1 102260 75
2001-07-30 07:01:09 51°13.676 2°55.924 3.5 204 21.1 102260 75
2001-07-30 07:01:13 51°13.676 2°55.924 4 186 21.1 102260 74
2001-07-30 07:01:19 51°13.676 2°55.924 3.7 205 21.1 102260 74
2001-07-30 07:01:24 51°13.676 2°55.924 4.2 204 21.1 102260 75
2001-07-30 07:01:29 51°13.676 2°55.924 3.1 207 21.1 102260 75
2001-07-30 07:01:33 51°13.676 2°55.924 3.4 208 21.1 102260 75
2001-07-30 07:01:39 51°13.676 2°55.924 2.5 207 21.1 102260 75
2001-07-30 07:01:44 51°13.676 2°55.924 2.9 207 21.1 102260 75
2001-07-30 07:01:49 51°13.676 2°55.924 2.9 200 21.1 102260 75
2001-07-30 07:01:53 51°13.676 2°55.924 2.6 206 21.1 102260 74
2001-07-30 07:01:59 51°13.676 2°55.924 2 222 21.1 102260 74
2001-07-30 07:02:03 51°13.676 2°55.924 3.2 236 21.1 102260 75
2001-07-30 07:02:09 51°13.676 2°55.924 3.1 245 21.1 102260 75
2001-07-30 07:02:13 51°13.676 2°55.924 2.3 213 21.1 102260 75
2001-07-30 07:02:19 51°13.676 2°55.924 2.5 206 21.1 102260 75
2001-07-30 07:02:24 51°13.676 2°55.924 2.7 210 21.1 102260 75
2001-07-30 07:02:29 51°13.676 2°55.924 2.9 204 21.1 102260 75
2001-07-30 07:02:33 51°13.676 2°55.924 2.5 208 21.1 102260 75
2001-07-30 07:02:39 51°13.676 2°55.924 3 224 21.1 102260 75
2001-07-30 07:02:44 51°13.676 2°55.924 3.2 222 21.1 102260 75
2001-07-30 07:02:49 51°13.676 2°55.924 3.3 225 21.1 102260 75
2001-07-30 07:02:54 51°13.676 2°55.924 3.5 215 21.1 102260 75
2001-07-30 07:02:59 51°13.676 2°55.924 3.3 208 21.1 102260 75
2001-07-30 07:03:03 51°13.676 2°55.924 3.4 210 21.1 102260 75
2001-07-30 07:03:09 51°13.676 2°55.924 2.9 214 21.1 102260 75
2001-07-30 07:03:14 51°13.676 2°55.924 2.6 208 21.1 102260 74
2001-07-30 07:03:19 51°13.676 2°55.924 3.1 205 21.1 102260 74
2001-07-30 07:03:23 51°13.676 2°55.924 2.6 211 21.1 102260 74
2001-07-30 07:03:29 51°13.676 2°55.924 3.5 206 21.1 102260 74
2001-07-30 07:03:33 51°13.676 2°55.924 2.9 216 21.1 102270 74
2001-07-30 07:03:39 51°13.676 2°55.924 2.6 213 21.1 102270 74
2001-07-30 07:03:43 51°13.676 2°55.924 2.5 212 21.1 102260 74
2001-07-30 07:03:49 51°13.676 2°55.924 3.1 214 21.1 102260 74
2001-07-30 07:03:53 51°13.676 2°55.924 2.1 196 21.1 102260 74
2001-07-30 07:03:59 51°13.676 2°55.924 3.1 208 21.1 102260 74
2001-07-30 07:04:04 51°13.676 2°55.924 2.4 206 21.1 102260 74
2001-07-30 07:04:09 51°13.676 2°55.924 3.3 204 21.1 102260 74
2001-07-30 07:04:13 51°13.676 2°55.924 4 209 21.1 102260 74
2001-07-30 07:04:19 51°13.676 2°55.924 3 213 21.1 102260 74
2001-07-30 07:04:24 51°13.676 2°55.924 2.6 210 21.1 102260 74
2001-07-30 07:04:29 51°13.676 2°55.924 4.5 192 21.1 102260 74
2001-07-30 07:04:34 51°13.676 2°55.924 4.2 206 21.1 102260 75
2001-07-30 07:04:39 51°13.676 2°55.924 3.8 204 21.1 102260 75
2001-07-30 07:04:43 51°13.676 2°55.924 3.7 194 21.1 102260 75
2001-07-30 07:04:49 51°13.676 2°55.924 2.8 204 21.1 102260 75
2001-07-30 07:04:53 51°13.676 2°55.924 2.7 207 21.1 102270 75
2001-07-30 07:04:59 51°13.676 2°55.924 3.4 205 21.1 102270 75
2001-07-30 07:05:03 51°13.676 2°55.924 2.8 212 21.1 102270 74
2001-07-30 07:05:09 51°13.676 2°55.924 3.2 217 21.1 102270 74
2001-07-30 07:05:14 51°13.676 2°55.924 3.1 212 21.1 102270 74
2001-07-30 07:05:19 51°13.676 2°55.924 2.9 210 21.1 102270 74
2001-07-30 07:05:24 51°13.676 2°55.923 2.9 209 21.1 102270 75
2001-07-30 07:05:29 51°13.677 2°55.923 2.8 212 21.1 102270 75
2001-07-30 07:05:34 51°13.676 2°55.923 2.5 204 21.1 102270 75
2001-07-30 07:05:39 51°13.677 2°55.923 3.1 207 21.1 102270 75
2001-07-30 07:05:43 51°13.676 2°55.923 3 197 21.1 102270 75
2001-07-30 07:05:49 51°13.676 2°55.923 3.3 206 21.1 102270 75
2001-07-30 07:05:53 51°13.676 2°55.923 4.3 211 21 102270 75
2001-07-30 07:05:59 51°13.676 2°55.923 3.2 204 21 102270 75
2001-07-30 07:06:03 51°13.676 2°55.923 3.3 214 21.1 102270 76
2001-07-30 07:06:09 51°13.676 2°55.923 3.7 200 21.1 102270 76
2001-07-30 07:06:13 51°13.676 2°55.923 2.9 206 21.1 102270 75
2001-07-30 07:06:19 51°13.676 2°55.923 3.8 208 21.1 102270 75
2001-07-30 07:06:23 51°13.676 2°55.923 5.1 193 21.1 102270 75
2001-07-30 07:06:29 51°13.676 2°55.923 4.1 196 21.1 102270 75
2001-07-30 07:06:33 51°13.676 2°55.923 3.5 202 21.1 102270 75
2001-07-30 07:06:39 51°13.676 2°55.923 3.7 205 21.1 102270 75
2001-07-30 07:06:44 51°13.676 2°55.923 3.3 206 21.1 102270 75
2001-07-30 07:06:49 51°13.676 2°55.923 3.2 205 21.1 102270 75
2001-07-30 07:06:53 51°13.676 2°55.923 2.6 213 21 102270 75
2001-07-30 07:06:59 51°13.676 2°55.923 2.6 217 21 102270 75
2001-07-30 07:07:03 51°13.676 2°55.923 2.1 215 21 102270 75
2001-07-30 07:07:09 51°13.676 2°55.923 2.7 212 21 102270 75
2001-07-30 07:07:13 51°13.676 2°55.923 3.1 218 21 102270 75
2001-07-30 07:07:19 51°13.676 2°55.923 2.9 216 21 102270 75
2001-07-30 07:07:24 51°13.676 2°55.923 3.3 200 21 102270 75
2001-07-30 07:07:29 51°13.676 2°55.923 3.4 195 21 102270 75
2001-07-30 07:07:33 51°13.676 2°55.923 3.4 198 21 102270 75
2001-07-30 07:07:39 51°13.676 2°55.923 3.5 204 21 102270 75
2001-07-30 07:07:44 51°13.676 2°55.923 3.9 205 21.1 102270 75
2001-07-30 07:07:49 51°13.676 2°55.923 2.9 214 21.1 102270 75
2001-07-30 07:07:53 51°13.676 2°55.923 3.2 206 21.1 102270 75
2001-07-30 07:07:59 51°13.676 2°55.923 3 205 21.1 102270 75
2001-07-30 07:08:03 51°13.676 2°55.923 3.1 209 21 102270 75
2001-07-30 07:08:09 51°13.676 2°55.923 3 212 21 102270 75
2001-07-30 07:08:13 51°13.676 2°55.923 2.4 208 21 102270 75
2001-07-30 07:08:19 51°13.676 2°55.923 2.4 215 21 102270 75
2001-07-30 07:08:24 51°13.676 2°55.923 2.2 201 21 102270 75
2001-07-30 07:08:29 51°13.676 2°55.923 1.7 210 21 102270 75
2001-07-30 07:08:34 51°13.676 2°55.923 2.7 200 21 102270 75
2001-07-30 07:08:39 51°13.676 2°55.923 2.7 211 21 102270 75
2001-07-30 07:08:43 51°13.676 2°55.923 2.4 208 21 102270 75
2001-07-30 07:08:49 51°13.676 2°55.923 2.6 213 21 102270 75
2001-07-30 07:08:53 51°13.676 2°55.923 2.6 214 21 102270 75
2001-07-30 07:08:59 51°13.676 2°55.923 2.9 208 21 102270 75
2001-07-30 07:09:04 51°13.676 2°55.923 2.4 207 21.1 102270 75
2001-07-30 07:09:09 51°13.676 2°55.923 2.9 207 21.1 102270 75
2001-07-30 07:09:13 51°13.676 2°55.923 3 197 21.1 102270 75
2001-07-30 07:09:19 51°13.676 2°55.923 2.8 190 21.1 102270 75
2001-07-30 07:09:23 51°13.676 2°55.923 3.3 204 21.1 102270 75
2001-07-30 07:09:29 51°13.676 2°55.923 2.3 206 21.1 102270 75
2001-07-30 07:09:33 51°13.676 2°55.923 3 215 21.1 102280 75
2001-07-30 07:09:39 51°13.677 2°55.923 2.6 204 21.1 102280 75
2001-07-30 07:09:43 51°13.677 2°55.923 3.2 203 21.1 102270 75
2001-07-30 07:09:49 51°13.676 2°55.923 3 208 21.1 102270 75
2001-07-30 07:09:53 51°13.676 2°55.923 3.8 201 21.1 102270 75
2001-07-30 07:09:59 51°13.676 2°55.923 3 201 21.1 102270 75
2001-07-30 07:10:03 51°13.676 2°55.923 2.6 202 21.1 102270 75
2001-07-30 07:10:09 51°13.676 2°55.923 3.5 199 21.1 102270 75
2001-07-30 07:10:13 51°13.676 2°55.923 2.2 211 21.1 102270 76
2001-07-30 07:10:19 51°13.676 2°55.923 4.6 208 21.1 102270 76
2001-07-30 07:10:23 51°13.676 2°55.923 4.3 203 21.1 102280 75
2001-07-30 07:10:29 51°13.676 2°55.923 3.7 205 21.1 102280 75
2001-07-30 07:10:33 51°13.676 2°55.923 3.4 198 21.1 102280 75
2001-07-30 07:10:39 51°13.676 2°55.923 4.9 201 21.1 102280 75
2001-07-30 07:10:43 51°13.676 2°55.923 3.7 205 21.1 102270 75
2001-07-30 07:10:49 51°13.676 2°55.923 3.8 197 21.1 102270 75
2001-07-30 07:10:54 51°13.676 2°55.923 3.7 203 21.1 102280 75
2001-07-30 07:10:59 51°13.676 2°55.923 4 204 21.1 102280 75
2001-07-30 07:11:03 51°13.676 2°55.923 4 207 21.1 102280 75
2001-07-30 07:11:09 51°13.676 2°55.923 3.6 210 21.1 102280 75
2001-07-30 07:11:13 51°13.676 2°55.923 3.7 207 21 102270 75
2001-07-30 07:11:19 51°13.676 2°55.923 3.4 206 21 102270 75
2001-07-30 07:11:23 51°13.676 2°55.923 3.8 207 21 102270 76
2001-07-30 07:11:29 51°13.676 2°55.923 3.2 213 21 102270 76
2001-07-30 07:11:34 51°13.676 2°55.923 3.6 191 21 102270 75
2001-07-30 07:11:39 51°13.676 2°55.923 3.4 205 21 102270 75
2001-07-30 07:11:43 51°13.676 2°55.923 3.4 198 21 102270 76
2001-07-30 07:11:49 51°13.676 2°55.923 4.3 207 21 102270 76
2001-07-30 07:11:53 51°13.676 2°55.923 4 203 21 102270 76
2001-07-30 07:11:59 51°13.676 2°55.923 3.8 207 21 102270 76
2001-07-30 07:12:04 51°13.676 2°55.923 3.1 212 21 102280 75
2001-07-30 07:12:09 51°13.676 2°55.923 3.4 203 21 102280 75
2001-07-30 07:12:13 51°13.676 2°55.923 3.4 207 21 102270 75
2001-07-30 07:12:19 51°13.676 2°55.923 3.2 204 21 102270 75
2001-07-30 07:12:23 51°13.676 2°55.923 3.7 205 21 102270 75
2001-07-30 07:12:29 51°13.676 2°55.924 4 211 21 102270 75
2001-07-30 07:12:33 51°13.676 2°55.924 3.2 212 21 102270 75
2001-07-30 07:12:39 51°13.676 2°55.924 3.6 205 21 102270 75
2001-07-30 07:12:44 51°13.677 2°55.924 4 198 21 102280 75
2001-07-30 07:12:49 51°13.676 2°55.924 3.9 199 21 102280 75
2001-07-30 07:12:53 51°13.677 2°55.924 3.7 198 21 102270 74
2001-07-30 07:12:59 51°13.677 2°55.924 4 203 21 102270 74
2001-07-30 07:13:03 51°13.677 2°55.924 3.4 208 21 102270 75
2001-07-30 07:13:09 51°13.677 2°55.924 3.4 206 21 102270 75
2001-07-30 07:13:14 51°13.676 2°55.924 2.9 216 21 102270 75
2001-07-30 07:13:19 51°13.676 2°55.924 2.9 205 21 102270 75
2001-07-30 07:13:23 51°13.677 2°55.924 2.8 207 21 102280 75
2001-07-30 07:13:29 51°13.677 2°55.924 2.6 204 21 102280 75
2001-07-30 07:13:33 51°13.677 2°55.924 2.8 209 21 102270 75
2001-07-30 07:13:39 51°13.677 2°55.924 4.1 196 21 102270 75
2001-07-30 07:13:44 51°13.677 2°55.924 3.1 201 21 102280 75
2001-07-30 07:13:49 51°13.677 2°55.924 3.8 206 21 102280 75
2001-07-30 07:13:53 51°13.677 2°55.924 4 200 21 102270 76
2001-07-30 07:13:59 51°13.677 2°55.924 3.8 204 21 102270 76
2001-07-30 07:14:03 51°13.677 2°55.924 3.6 207 21 102280 76
2001-07-30 07:14:09 51°13.677 2°55.924 3.6 200 21 102280 76
2001-07-30 07:14:13 51°13.677 2°55.924 3.5 207 21 102270 75
2001-07-30 07:14:19 51°13.677 2°55.924 2.1 215 21 102270 75
2001-07-30 07:14:23 51°13.677 2°55.924 2.7 211 21 102270 75
2001-07-30 07:14:29 51°13.676 2°55.924 2.5 213 21 102270 75
2001-07-30 07:14:33 51°13.676 2°55.924 2.5 199 21 102270 75
2001-07-30 07:14:39 51°13.677 2°55.924 2.9 207 21 102270 75
2001-07-30 07:14:43 51°13.677 2°55.924 2.8 207 20.9 102270 75
2001-07-30 07:14:49 51°13.677 2°55.924 2.4 204 20.9 102270 75
2001-07-30 07:14:54 51°13.677 2°55.924 3.7 198 21 102270 75
2001-07-30 07:14:59 51°13.677 2°55.924 3.7 204 21 102270 75
2001-07-30 07:15:03 51°13.677 2°55.924 3.7 203 20.9 102270 76
2001-07-30 07:15:09 51°13.677 2°55.924 4.2 199 20.9 102270 76
2001-07-30 07:15:13 51°13.677 2°55.924 3.7 202 21 102280 76
2001-07-30 07:15:17 51°13.677 2°55.924 3.2 208 21 102280 76
2001-07-30 07:15:23 51°13.676 2°55.924 2.6 200 21 102270 76
2001-07-30 07:15:29 51°13.677 2°55.924 3.2 214 21 102270 76
2001-07-30 07:15:33 51°13.676 2°55.924 3.4 216 21 102280 76
2001-07-30 07:15:39 51°13.676 2°55.924 3.3 206 21 102280 76
2001-07-30 07:15:43 51°13.676 2°55.924 1.9 215 21 102270 76
2001-07-30 07:15:49 51°13.676 2°55.924 2.9 210 21 102270 76
2001-07-30 07:15:54 51°13.676 2°55.924 2.4 210 20.9 102270 76
2001-07-30 07:15:59 51°13.676 2°55.924 2.9 207 20.9 102270 76
2001-07-30 07:16:03 51°13.676 2°55.924 2.9 212 21 102280 75
2001-07-30 07:16:09 51°13.676 2°55.924 3.4 200 21 102280 75
2001-07-30 07:16:13 51°13.676 2°55.924 3.2 192 20.9 102280 75
2001-07-30 07:16:19 51°13.676 2°55.924 4 205 20.9 102280 75
2001-07-30 07:16:23 51°13.676 2°55.924 3.4 199 20.9 102280 75
2001-07-30 07:16:29 51°13.676 2°55.924 4.2 196 20.9 102280 75
2001-07-30 07:16:33 51°13.676 2°55.924 4.1 208 20.9 102280 75
2001-07-30 07:16:39 51°13.676 2°55.924 3.2 209 20.9 102280 75
2001-07-30 07:16:43 51°13.676 2°55.924 2.9 205 20.9 102280 75
2001-07-30 07:16:49 51°13.676 2°55.924 3.4 205 20.9 102280 75
2001-07-30 07:16:54 51°13.676 2°55.924 4.2 206 20.9 102280 75
2001-07-30 07:16:59 51°13.676 2°55.924 3.9 197 20.9 102280 75
2001-07-30 07:17:03 51°13.676 2°55.924 3.7 210 21 102280 75
2001-07-30 07:17:09 51°13.676 2°55.924 3.4 208 21 102280 75
2001-07-30 07:17:14 51°13.676 2°55.924 3.1 204 20.9 102280 76
2001-07-30 07:17:19 51°13.676 2°55.924 3.9 206 20.9 102280 76
2001-07-30 07:17:24 51°13.676 2°55.924 3.7 206 20.9 102280 76
2001-07-30 07:17:29 51°13.676 2°55.924 2.8 197 20.9 102280 76
2001-07-30 07:17:33 51°13.676 2°55.924 2.5 206 20.9 102280 75
2001-07-30 07:17:39 51°13.676 2°55.924 2.1 207 20.9 102280 75
2001-07-30 07:17:44 51°13.676 2°55.924 2.1 205 20.9 102280 75
2001-07-30 07:17:49 51°13.676 2°55.924 2.3 209 20.9 102280 75
2001-07-30 07:17:53 51°13.676 2°55.924 3.8 209 20.9 102280 75
2001-07-30 07:17:59 51°13.676 2°55.924 3.8 207 20.9 102280 75
2001-07-30 07:18:03 51°13.676 2°55.924 2.8 207 20.9 102280 76
2001-07-30 07:18:09 51°13.676 2°55.924 2.1 215 20.9 102280 76
2001-07-30 07:18:13 51°13.676 2°55.924 2.4 208 21 102280 76
2001-07-30 07:18:19 51°13.676 2°55.924 3.2 209 21 102280 76
2001-07-30 07:18:23 51°13.676 2°55.924 3.3 212 20.9 102280 76
2001-07-30 07:18:29 51°13.676 2°55.924 3.5 216 20.9 102280 76
2001-07-30 07:18:33 51°13.676 2°55.924 3.8 205 20.9 102280 76
2001-07-30 07:18:39 51°13.676 2°55.924 3.9 208 20.9 102280 76
2001-07-30 07:18:43 51°13.676 2°55.924 3.1 205 20.9 102280 75
2001-07-30 07:18:49 51°13.676 2°55.924 3.4 205 20.9 102280 75
2001-07-30 07:18:53 51°13.676 2°55.924 3.7 216 20.9 102280 75
2001-07-30 07:18:59 51°13.676 2°55.924 3.3 205 20.9 102280 75
2001-07-30 07:19:03 51°13.676 2°55.924 3.6 204 20.9 102280 75
2001-07-30 07:19:09 51°13.676 2°55.924 3.2 207 20.9 102280 75
2001-07-30 07:19:13 51°13.676 2°55.924 4 203 20.9 102280 75
2001-07-30 07:19:19 51°13.676 2°55.924 3.6 197 20.9 102280 75
2001-07-30 07:19:23 51°13.676 2°55.924 3.1 204 20.9 102280 75
2001-07-30 07:19:29 51°13.676 2°55.924 3.4 205 20.9 102280 75
2001-07-30 07:19:33 51°13.676 2°55.924 4 201 20.9 102280 76
2001-07-30 07:19:39 51°13.676 2°55.924 3.5 206 20.9 102280 76
2001-07-30 07:19:43 51°13.676 2°55.924 3.7 208 20.9 102280 76
2001-07-30 07:19:49 51°13.676 2°55.923 3.9 207 20.9 102280 76
2001-07-30 07:19:53 51°13.676 2°55.923 3 211 20.9 102280 76
2001-07-30 07:19:59 51°13.676 2°55.923 3 206 20.9 102280 76
2001-07-30 07:20:03 51°13.676 2°55.924 2.8 243 20.9 102280 76
2001-07-30 07:20:09 51°13.676 2°55.924 2.8 218 20.9 102280 76
2001-07-30 07:20:13 51°13.676 2°55.924 2.3 216 20.9 102280 76
2001-07-30 07:20:18 51°13.676 2°55.924 2.5 203 20.9 102280 76
2001-07-30 07:20:23 51°13.676 2°55.924 2.3 208 20.9 102280 76
2001-07-30 07:20:29 51°13.676 2°55.924 3 206 20.9 102280 76
2001-07-30 07:20:34 51°13.676 2°55.924 3 207 20.9 102280 76
2001-07-30 07:20:39 51°13.676 2°55.924 3.1 206 20.9 102280 76
2001-07-30 07:20:44 51°13.676 2°55.923 3.3 204 20.9 102280 76
2001-07-30 07:20:49 51°13.676 2°55.924 4.5 197 20.9 102280 76
2001-07-30 07:20:54 51°13.676 2°55.924 3.6 193 20.9 102280 75
2001-07-30 07:20:59 51°13.676 2°55.923 3.7 192 20.9 102280 75
2001-07-30 07:21:04 51°13.676 2°55.923 3.7 204 21 102280 76
2001-07-30 07:21:09 51°13.676 2°55.923 3.8 209 21 102280 76
2001-07-30 07:21:13 51°13.676 2°55.923 3.7 206 21 102280 76
2001-07-30 07:21:19 51°13.676 2°55.923 4.4 204 21 102280 76
2001-07-30 07:21:24 51°13.676 2°55.924 3.8 208 21 102280 76
2001-07-30 07:21:29 51°13.676 2°55.924 3.8 207 21 102280 76
2001-07-30 07:21:33 51°13.676 2°55.924 4.4 207 21 102280 76
2001-07-30 07:21:39 51°13.676 2°55.924 3.7 210 21 102280 76
2001-07-30 07:21:43 51°13.676 2°55.924 3.5 207 21 102280 75
2001-07-30 07:21:49 51°13.676 2°55.924 3.4 210 21 102280 75
2001-07-30 07:21:53 51°13.676 2°55.924 3.3 208 20.9 102280 75
2001-07-30 07:21:59 51°13.676 2°55.924 3.6 202 20.9 102280 75
2001-07-30 07:22:03 51°13.676 2°55.924 3.9 204 21 102280 76
2001-07-30 07:22:09 51°13.676 2°55.924 3.8 207 21 102280 76
2001-07-30 07:22:13 51°13.676 2°55.924 3.3 212 20.9 102280 76
2001-07-30 07:22:19 51°13.676 2°55.924 3.7 210 20.9 102280 76
2001-07-30 07:22:23 51°13.676 2°55.924 3.9 205 20.9 102280 75
2001-07-30 07:22:29 51°13.676 2°55.924 3 208 20.9 102280 75
2001-07-30 07:22:34 51°13.676 2°55.924 3.1 210 20.9 102280 75
2001-07-30 07:22:39 51°13.676 2°55.924 3.1 207 20.9 102280 75
2001-07-30 07:22:43 51°13.676 2°55.924 3.5 210 20.9 102280 76
2001-07-30 07:22:49 51°13.676 2°55.924 3.6 201 20.9 102280 76
2001-07-30 07:22:53 51°13.676 2°55.924 3.9 210 20.9 102280 76
2001-07-30 07:22:59 51°13.676 2°55.925 3.3 202 20.9 102280 76
2001-07-30 07:23:03 51°13.676 2°55.925 3 206 20.9 102280 76
2001-07-30 07:23:09 51°13.676 2°55.925 2.9 211 20.9 102280 76
2001-07-30 07:23:13 51°13.676 2°55.926 3.4 205 20.9 102280 76
2001-07-30 07:23:19 51°13.676 2°55.926 3.6 199 20.9 102280 76
2001-07-30 07:23:23 51°13.676 2°55.926 3 203 20.9 102280 76
2001-07-30 07:23:29 51°13.676 2°55.926 3.7 209 20.9 102280 76
2001-07-30 07:23:33 51°13.676 2°55.926 2.7 214 20.9 102280 76
2001-07-30 07:23:39 51°13.675 2°55.926 3.6 205 20.9 102280 76
2001-07-30 07:23:43 51°13.675 2°55.926 4.3 201 20.9 102280 76
2001-07-30 07:23:49 51°13.675 2°55.926 3.9 203 20.9 102280 76
2001-07-30 07:23:53 51°13.675 2°55.926 3.6 209 20.9 102280 76
2001-07-30 07:23:59 51°13.675 2°55.926 4.2 202 20.9 102280 76
2001-07-30 07:24:03 51°13.675 2°55.927 3.6 207 20.9 102280 76
2001-07-30 07:24:09 51°13.675 2°55.927 4.2 205 20.9 102280 76
2001-07-30 07:24:14 51°13.675 2°55.927 4.5 200 20.9 102280 76
2001-07-30 07:24:19 51°13.675 2°55.927 3.9 198 20.9 102280 76
2001-07-30 07:24:24 51°13.675 2°55.927 4.5 197 20.9 102280 76
2001-07-30 07:24:29 51°13.675 2°55.927 3.6 196 20.9 102280 76
2001-07-30 07:24:33 51°13.674 2°55.927 4.6 199 20.9 102280 76
2001-07-30 07:24:39 51°13.674 2°55.927 4.3 195 20.9 102280 76
2001-07-30 07:24:43 51°13.674 2°55.927 4.2 189 20.9 102280 76
2001-07-30 07:24:49 51°13.674 2°55.927 3.8 186 20.9 102280 76
2001-07-30 07:24:53 51°13.674 2°55.927 3.4 195 20.9 102280 76
2001-07-30 07:24:59 51°13.674 2°55.927 2.6 188 20.9 102280 76
2001-07-30 07:25:03 51°13.673 2°55.928 4 179 20.9 102280 76
2001-07-30 07:25:09 51°13.673 2°55.928 4.3 182 20.9 102280 76
2001-07-30 07:25:13 51°13.673 2°55.928 4.7 184 20.9 102280 76
2001-07-30 07:25:19 51°13.673 2°55.928 4 181 20.9 102280 76
2001-07-30 07:25:23 51°13.673 2°55.927 4.6 173 20.9 102280 76
2001-07-30 07:25:29 51°13.673 2°55.927 4.9 166 20.9 102280 76
2001-07-30 07:25:33 51°13.673 2°55.927 4.5 175 20.9 102280 76
2001-07-30 07:25:37 51°13.672 2°55.927 4.5 174 20.9 102280 76
2001-07-30 07:25:43 51°13.673 2°55.926 4.4 169 20.9 102280 76
2001-07-30 07:25:49 51°13.672 2°55.925 3.5 178 20.9 102280 76
2001-07-30 07:25:53 51°13.672 2°55.924 4.4 183 20.9 102280 77
2001-07-30 07:25:59 51°13.672 2°55.921 4 180 20.9 102280 77
2001-07-30 07:26:03 51°13.672 2°55.919 3.8 176 20.9 102280 76
2001-07-30 07:26:07 51°13.672 2°55.917 3.5 177 20.9 102280 76
2001-07-30 07:26:13 51°13.672 2°55.914 4.1 184 21 102280 77
2001-07-30 07:26:17 51°13.672 2°55.912 3.8 193 21 102280 77
2001-07-30 07:26:23 51°13.672 2°55.907 3.3 185 21 102280 77
2001-07-30 07:26:29 51°13.672 2°55.902 2.7 197 21 102280 77
2001-07-30 07:26:34 51°13.672 2°55.896 4.1 182 21.1 102280 76
2001-07-30 07:26:39 51°13.672 2°55.89 4.7 178 21.1 102280 76
2001-07-30 07:26:44 51°13.672 2°55.884 4.3 177 21.1 102280 75
2001-07-30 07:26:49 51°13.672 2°55.877 4.9 178 21.1 102280 75
2001-07-30 07:26:54 51°13.672 2°55.869 6.2 185 21.1 102280 76
2001-07-30 07:26:59 51°13.672 2°55.861 5.2 186 21.1 102280 76
2001-07-30 07:27:04 51°13.672 2°55.853 5 190 21.2 102280 76
2001-07-30 07:27:09 51°13.672 2°55.845 5 172 21.2 102280 76
2001-07-30 07:27:13 51°13.672 2°55.839 4.4 184 21.2 102280 75
2001-07-30 07:27:19 51°13.672 2°55.83 4.3 172 21.2 102280 75
2001-07-30 07:27:23 51°13.672 2°55.824 4.2 165 21.2 102280 74
2001-07-30 07:27:29 51°13.672 2°55.815 3.8 188 21.2 102280 74
2001-07-30 07:27:33 51°13.672 2°55.81 4.2 173 21.2 102280 74
2001-07-30 07:27:39 51°13.672 2°55.801 3.8 175 21.2 102280 74
2001-07-30 07:27:44 51°13.672 2°55.794 4.6 166 21.2 102280 75
2001-07-30 07:27:49 51°13.672 2°55.788 4 169 21.2 102280 75
2001-07-30 07:27:53 51°13.672 2°55.783 2.6 164 21.2 102290 76
2001-07-30 07:27:59 51°13.672 2°55.776 2.7 169 21.2 102290 76
2001-07-30 07:28:03 51°13.672 2°55.771 1.9 162 21.3 102280 76
2001-07-30 07:28:07 51°13.672 2°55.766 3.5 172 21.3 102280 76
2001-07-30 07:28:13 51°13.672 2°55.76 3.8 164 21.3 102280 75
2001-07-30 07:28:17 51°13.672 2°55.755 3.9 172 21.3 102280 75
2001-07-30 07:28:23 51°13.672 2°55.749 3.6 174 21.4 102280 75
2001-07-30 07:28:28 51°13.672 2°55.746 3.4 166 21.4 102280 75
2001-07-30 07:28:33 51°13.672 2°55.745 2.9 154 21.4 102280 75
2001-07-30 07:28:38 51°13.673 2°55.745 2.3 142 21.4 102280 75
2001-07-30 07:28:43 51°13.674 2°55.746 2.5 159 21.4 102280 75
2001-07-30 07:28:47 51°13.675 2°55.748 1.1 100 21.4 102280 75
2001-07-30 07:28:53 51°13.679 2°55.753 0.7 93 21.5 102280 75
2001-07-30 07:28:59 51°13.684 2°55.758 1 68 21.5 102280 75
2001-07-30 07:29:03 51°13.688 2°55.761 0.8 61 21.5 102280 74
2001-07-30 07:29:07 51°13.693 2°55.763 2.5 265 21.5 102280 74
2001-07-30 07:29:13 51°13.702 2°55.764 3.4 338 21.5 102280 74
2001-07-30 07:29:19 51°13.712 2°55.762 5.3 31 21.5 102280 74
2001-07-30 07:29:23 51°13.718 2°55.76 5.9 33 21.5 102280 74
2001-07-30 07:29:27 51°13.725 2°55.756 5.2 13 21.5 102280 74
2001-07-30 07:29:33 51°13.734 2°55.75 4.8 34 21.6 102280 74
2001-07-30 07:29:37 51°13.74 2°55.745 5.5 25 21.6 102280 74
2001-07-30 07:29:43 51°13.749 2°55.736 5.1 19 21.6 102280 74
2001-07-30 07:29:47 51°13.755 2°55.73 5.2 358 21.6 102280 74
2001-07-30 07:29:53 51°13.764 2°55.72 6.2 10 21.5 102280 74
2001-07-30 07:29:59 51°13.774 2°55.709 5.5 18 21.5 102280 74
2001-07-30 07:30:03 51°13.781 2°55.702 5.8 355 21.6 102280 73
2001-07-30 07:30:07 51°13.788 2°55.694 8.4 2 21.6 102280 73
2001-07-30 07:30:13 51°13.797 2°55.683 6.9 14 21.6 102280 74
2001-07-30 07:30:17 51°13.804 2°55.675 6.4 14 21.6 102280 74
2001-07-30 07:30:23 51°13.814 2°55.664 5.2 10 21.6 102270 74
2001-07-30 07:30:27 51°13.821 2°55.657 4 9 21.6 102270 74
2001-07-30 07:30:33 51°13.832 2°55.646 5.3 11 21.6 102270 74
2001-07-30 07:30:37 51°13.839 2°55.639 9 27 21.6 102270 74
2001-07-30 07:30:43 51°13.851 2°55.629 6.9 21 21.6 102280 74
2001-07-30 07:30:47 51°13.859 2°55.622 8.5 33 21.6 102280 74
2001-07-30 07:30:53 51°13.871 2°55.614 6.6 36 21.5 102280 75
2001-07-30 07:30:57 51°13.879 2°55.608 6.8 21 21.5 102280 75
2001-07-30 07:31:03 51°13.892 2°55.599 5.3 14 21.5 102270 74
2001-07-30 07:31:07 51°13.901 2°55.594 7.9 25 21.5 102270 74
2001-07-30 07:31:13 51°13.914 2°55.585 9.7 24 21.5 102280 75
2001-07-30 07:31:18 51°13.925 2°55.578 8.3 23 21.5 102280 75
2001-07-30 07:31:23 51°13.936 2°55.57 8.9 21 21.5 102270 75
2001-07-30 07:31:27 51°13.944 2°55.564 8.7 21 21.5 102270 75
2001-07-30 07:31:33 51°13.958 2°55.555 9.4 27 21.5 102280 75
2001-07-30 07:31:37 51°13.967 2°55.549 7.9 15 21.5 102280 75
2001-07-30 07:31:43 51°13.98 2°55.54 7.2 22 21.5 102270 75
2001-07-30 07:31:47 51°13.989 2°55.535 8.5 20 21.5 102270 75
2001-07-30 07:31:53 51°14.003 2°55.526 7.8 36 21.4 102270 75
2001-07-30 07:31:58 51°14.015 2°55.519 8.4 31 21.4 102270 75
2001-07-30 07:32:03 51°14.026 2°55.512 7.6 33 21.4 102270 76
2001-07-30 07:32:07 51°14.035 2°55.506 7.2 24 21.4 102270 76
2001-07-30 07:32:13 51°14.049 2°55.496 6.8 22 21.4 102280 76
2001-07-30 07:32:19 51°14.062 2°55.486 7.4 10 21.4 102280 76
2001-07-30 07:32:23 51°14.071 2°55.479 9.5 17 21.3 102270 76
2001-07-30 07:32:27 51°14.08 2°55.473 9.3 14 21.3 102270 76
2001-07-30 07:32:33 51°14.092 2°55.463 7.9 22 21.3 102270 76
2001-07-30 07:32:37 51°14.1 2°55.456 9.4 32 21.3 102270 76
2001-07-30 07:32:43 51°14.112 2°55.447 8.5 25 21.3 102280 77
2001-07-30 07:32:47 51°14.12 2°55.44 9.3 31 21.3 102280 77
2001-07-30 07:32:53 51°14.132 2°55.43 10 28 21.3 102270 77
2001-07-30 07:32:57 51°14.14 2°55.423 10.8 39 21.3 102270 77
2001-07-30 07:33:03 51°14.152 2°55.412 11.7 35 21.3 102270 77
2001-07-30 07:33:07 51°14.16 2°55.405 10.9 36 21.3 102270 77
2001-07-30 07:33:13 51°14.173 2°55.393 11.6 34 21.2 102270 77
2001-07-30 07:33:17 51°14.181 2°55.385 10.4 29 21.2 102270 77
2001-07-30 07:33:23 51°14.193 2°55.372 11.3 33 21.2 102270 77
2001-07-30 07:33:27 51°14.202 2°55.363 10.5 26 21.2 102270 77
2001-07-30 07:33:33 51°14.214 2°55.349 11.3 30 21.2 102270 78
2001-07-30 07:33:37 51°14.222 2°55.339 12 30 21.2 102270 78
2001-07-30 07:33:43 51°14.234 2°55.323 11.6 34 21.2 102270 79
2001-07-30 07:33:48 51°14.243 2°55.31 10.2 33 21.2 102270 79
2001-07-30 07:33:53 51°14.253 2°55.297 11.2 29 21.1 102270 79
2001-07-30 07:33:57 51°14.26 2°55.285 11 26 21.1 102270 79
2001-07-30 07:34:03 51°14.27 2°55.268 9.9 25 21.1 102270 78
2001-07-30 07:34:07 51°14.277 2°55.256 9.5 24 21.1 102270 78
2001-07-30 07:34:13 51°14.286 2°55.237 10.4 23 21.1 102270 79
2001-07-30 07:34:18 51°14.294 2°55.221 10.6 26 21.1 102270 79
2001-07-30 07:34:23 51°14.302 2°55.206 11.3 32 21 102270 79
2001-07-30 07:34:29 51°14.311 2°55.187 9.5 11 21 102270 79
2001-07-30 07:34:33 51°14.317 2°55.174 10.6 25 21 102270 80
2001-07-30 07:34:37 51°14.324 2°55.162 10.1 26 21 102270 80
2001-07-30 07:34:43 51°14.333 2°55.143 9.9 28 21 102270 80
2001-07-30 07:34:47 51°14.339 2°55.13 11.5 34 21 102270 80
2001-07-30 07:34:53 51°14.349 2°55.111 10.8 32 20.9 102270 80
2001-07-30 07:34:57 51°14.355 2°55.098 10.5 26 20.9 102270 80
2001-07-30 07:35:03 51°14.365 2°55.08 10.5 31 20.9 102270 80
2001-07-30 07:35:07 51°14.372 2°55.069 11.5 30 20.9 102270 80
2001-07-30 07:35:13 51°14.385 2°55.055 12 30 20.9 102270 80
2001-07-30 07:35:19 51°14.399 2°55.042 10.6 37 20.9 102270 80
2001-07-30 07:35:23 51°14.409 2°55.034 10.9 32 20.8 102270 80
2001-07-30 07:35:27 51°14.419 2°55.026 10.8 32 20.8 102270 80
2001-07-30 07:35:33 51°14.435 2°55.014 10.5 30 20.8 102270 80
2001-07-30 07:35:37 51°14.445 2°55.005 11.3 33 20.8 102270 80
2001-07-30 07:35:43 51°14.462 2°54.993 11.3 37 20.8 102270 81
2001-07-30 07:35:47 51°14.473 2°54.986 10.9 34 20.8 102270 81
2001-07-30 07:35:53 51°14.49 2°54.976 10.1 31 20.7 102260 80
2001-07-30 07:35:57 51°14.502 2°54.969 11.2 32 20.7 102260 80
2001-07-30 07:36:03 51°14.52 2°54.959 11.5 33 20.7 102270 80
2001-07-30 07:36:09 51°14.538 2°54.948 11.9 30 20.7 102270 80
2001-07-30 07:36:13 51°14.55 2°54.941 11.4 28 20.7 102260 80
2001-07-30 07:36:17 51°14.562 2°54.932 11.9 31 20.7 102260 80
2001-07-30 07:36:23 51°14.579 2°54.92 11.8 37 20.7 102270 81
2001-07-30 07:36:27 51°14.591 2°54.912 11.1 30 20.7 102270 81
2001-07-30 07:36:33 51°14.609 2°54.901 10.5 30 20.7 102270 80
2001-07-30 07:36:38 51°14.624 2°54.891 11.3 28 20.7 102270 80
2001-07-30 07:36:43 51°14.638 2°54.881 12.7 29 20.6 102270 81
2001-07-30 07:36:47 51°14.65 2°54.872 12.2 29 20.6 102270 81
2001-07-30 07:36:53 51°14.667 2°54.858 12.1 31 20.6 102270 81
2001-07-30 07:36:57 51°14.679 2°54.849 11.8 28 20.6 102270 81
2001-07-30 07:37:03 51°14.696 2°54.835 11.7 32 20.6 102270 81
2001-07-30 07:37:09 51°14.713 2°54.822 11.8 30 20.6 102270 81
2001-07-30 07:37:13 51°14.724 2°54.812 12.5 32 20.6 102260 81
2001-07-30 07:37:17 51°14.736 2°54.803 11.6 26 20.6 102260 81
2001-07-30 07:37:23 51°14.753 2°54.789 12 27 20.6 102270 81
2001-07-30 07:37:27 51°14.764 2°54.78 11.9 30 20.6 102270 81
2001-07-30 07:37:33 51°14.782 2°54.767 12 31 20.6 102270 81
2001-07-30 07:37:38 51°14.797 2°54.756 11.3 32 20.6 102270 81
2001-07-30 07:37:43 51°14.812 2°54.745 11.1 24 20.5 102260 81
2001-07-30 07:37:47 51°14.823 2°54.735 12.5 30 20.5 102260 81
2001-07-30 07:37:53 51°14.841 2°54.722 11.8 29 20.5 102270 81
2001-07-30 07:37:57 51°14.854 2°54.713 11 27 20.5 102270 81
2001-07-30 07:38:03 51°14.872 2°54.7 12.8 30 20.5 102270 82
2001-07-30 07:38:09 51°14.891 2°54.686 12.9 33 20.5 102270 82
2001-07-30 07:38:13 51°14.903 2°54.677 12.7 31 20.5 102270 82
2001-07-30 07:38:17 51°14.915 2°54.668 12.9 36 20.5 102270 82
2001-07-30 07:38:23 51°14.934 2°54.654 12.1 26 20.5 102270 82
2001-07-30 07:38:27 51°14.946 2°54.645 11.1 24 20.5 102270 82
2001-07-30 07:38:33 51°14.964 2°54.63 12.8 30 20.5 102260 82
2001-07-30 07:38:38 51°14.979 2°54.618 12.3 30 20.5 102260 82
2001-07-30 07:38:43 51°14.994 2°54.606 12.5 29 20.5 102270 82
2001-07-30 07:38:49 51°15.012 2°54.591 11.9 33 20.5 102270 82
2001-07-30 07:38:53 51°15.025 2°54.582 11.9 28 20.4 102260 82
2001-07-30 07:38:57 51°15.037 2°54.573 12.1 26 20.4 102260 82
2001-07-30 07:39:03 51°15.056 2°54.558 11.7 24 20.4 102270 82
2001-07-30 07:39:09 51°15.075 2°54.543 11.5 21 20.4 102270 82
2001-07-30 07:39:13 51°15.087 2°54.532 11.9 19 20.4 102260 82
2001-07-30 07:39:17 51°15.099 2°54.52 12.4 21 20.4 102260 82
2001-07-30 07:39:23 51°15.118 2°54.503 12.3 26 20.4 102270 82
2001-07-30 07:39:27 51°15.13 2°54.491 13.1 26 20.4 102270 82
2001-07-30 07:39:33 51°15.149 2°54.474 12.6 22 20.4 102270 82
2001-07-30 07:39:38 51°15.166 2°54.461 12.4 26 20.4 102270 82
2001-07-30 07:39:43 51°15.182 2°54.449 12.1 27 20.4 102270 82
2001-07-30 07:39:49 51°15.202 2°54.434 12.3 24 20.4 102270 82
2001-07-30 07:39:53 51°15.216 2°54.424 11.9 22 20.4 102260 82
2001-07-30 07:39:57 51°15.229 2°54.414 12 25 20.4 102260 82
2001-07-30 07:40:03 51°15.249 2°54.398 12.1 22 20.4 102270 82
2001-07-30 07:40:09 51°15.269 2°54.381 12.5 24 20.4 102270 82
2001-07-30 07:40:13 51°15.282 2°54.37 12.4 21 20.4 102270 82
2001-07-30 07:40:17 51°15.295 2°54.36 13.2 28 20.4 102270 82
2001-07-30 07:40:23 51°15.315 2°54.344 13.4 28 20.4 102270 82
2001-07-30 07:40:27 51°15.329 2°54.334 12.6 24 20.4 102270 82
2001-07-30 07:40:33 51°15.349 2°54.319 12.8 22 20.3 102270 82
2001-07-30 07:40:38 51°15.366 2°54.306 13 27 20.3 102270 82
2001-07-30 07:40:43 51°15.382 2°54.292 12.2 19 20.3 102270 82
2001-07-30 07:40:49 51°15.402 2°54.275 12.7 22 20.3 102270 82
2001-07-30 07:40:53 51°15.415 2°54.263 12.3 23 20.3 102260 82
2001-07-30 07:40:57 51°15.428 2°54.252 12.8 16 20.3 102260 82
2001-07-30 07:41:03 51°15.447 2°54.234 12.6 17 20.3 102260 82
2001-07-30 07:41:09 51°15.467 2°54.217 12.2 24 20.3 102260 82
2001-07-30 07:41:13 51°15.48 2°54.205 12.5 21 20.3 102260 83
2001-07-30 07:41:18 51°15.496 2°54.191 13.1 19 20.3 102260 83
2001-07-30 07:41:23 51°15.513 2°54.177 12.6 21 20.3 102270 83
2001-07-30 07:41:29 51°15.533 2°54.16 12.5 23 20.3 102270 83
2001-07-30 07:41:33 51°15.546 2°54.149 12.2 24 20.3 102270 83
2001-07-30 07:41:37 51°15.559 2°54.138 12.4 23 20.3 102270 83
2001-07-30 07:41:43 51°15.579 2°54.122 12.6 25 20.3 102260 83
2001-07-30 07:41:47 51°15.593 2°54.111 13.1 21 20.3 102260 83
2001-07-30 07:41:53 51°15.613 2°54.095 13 24 20.3 102270 83
2001-07-30 07:41:58 51°15.63 2°54.081 12.5 19 20.3 102270 83
2001-07-30 07:42:03 51°15.646 2°54.068 12.1 17 20.3 102270 83
2001-07-30 07:42:09 51°15.666 2°54.052 13 22 20.3 102270 83
2001-07-30 07:42:13 51°15.68 2°54.041 13 24 20.3 102270 83
2001-07-30 07:42:19 51°15.7 2°54.024 12.3 24 20.3 102270 83
2001-07-30 07:42:23 51°15.713 2°54.013 13.3 24 20.3 102260 83
2001-07-30 07:42:27 51°15.726 2°54.002 12.3 22 20.3 102260 83
2001-07-30 07:42:33 51°15.746 2°53.985 12.7 22 20.3 102260 82
2001-07-30 07:42:37 51°15.759 2°53.974 12.8 23 20.3 102260 82
2001-07-30 07:42:43 51°15.779 2°53.957 12.2 22 20.3 102260 82
2001-07-30 07:42:47 51°15.792 2°53.946 12.3 21 20.3 102260 82
2001-07-30 07:42:53 51°15.812 2°53.93 12.6 21 20.2 102260 83
2001-07-30 07:42:57 51°15.826 2°53.919 13.2 20 20.2 102260 83
2001-07-30 07:43:03 51°15.846 2°53.902 12.5 20 20.2 102260 82
2001-07-30 07:43:09 51°15.866 2°53.886 12.3 18 20.2 102260 82
2001-07-30 07:43:13 51°15.88 2°53.876 12.6 21 20.2 102270 83
2001-07-30 07:43:17 51°15.893 2°53.866 13 20 20.2 102270 83
2001-07-30 07:43:23 51°15.914 2°53.85 13.1 21 20.2 102260 83
2001-07-30 07:43:27 51°15.927 2°53.84 13.1 23 20.2 102260 83
2001-07-30 07:43:33 51°15.948 2°53.825 12.5 23 20.2 102260 83
2001-07-30 07:43:37 51°15.962 2°53.815 11.7 21 20.2 102260 83
2001-07-30 07:43:43 51°15.982 2°53.8 12.2 23 20.2 102260 83
2001-07-30 07:43:49 51°16.003 2°53.785 12.6 24 20.2 102260 83
2001-07-30 07:43:53 51°16.017 2°53.775 12.1 18 20.2 102260 82
2001-07-30 07:43:57 51°16.03 2°53.765 12.6 24 20.2 102260 82
2001-07-30 07:44:03 51°16.05 2°53.749 11.6 22 20.2 102270 83
2001-07-30 07:44:09 51°16.071 2°53.734 11.7 20 20.2 102270 83
2001-07-30 07:44:13 51°16.084 2°53.723 12.3 23 20.2 102260 83
2001-07-30 07:44:17 51°16.097 2°53.713 12.6 20 20.2 102260 83
2001-07-30 07:44:23 51°16.117 2°53.697 11.8 19 20.2 102260 83
2001-07-30 07:44:27 51°16.131 2°53.686 11.9 23 20.2 102260 83
2001-07-30 07:44:33 51°16.151 2°53.67 11.8 19 20.2 102270 83
2001-07-30 07:44:38 51°16.167 2°53.656 12.4 21 20.2 102270 83
2001-07-30 07:44:43 51°16.184 2°53.642 12.8 19 20.2 102270 83
2001-07-30 07:44:49 51°16.203 2°53.624 11.6 19 20.2 102270 83
2001-07-30 07:44:53 51°16.216 2°53.613 11.5 23 20.2 102270 83
2001-07-30 07:44:57 51°16.229 2°53.601 12 23 20.2 102270 83
2001-07-30 07:45:03 51°16.248 2°53.583 11.4 20 20.1 102270 83
2001-07-30 07:45:07 51°16.261 2°53.572 12.1 24 20.1 102270 83
2001-07-30 07:45:13 51°16.28 2°53.555 11.7 21 20.1 102270 83
2001-07-30 07:45:17 51°16.293 2°53.543 12.1 24 20.1 102270 83
2001-07-30 07:45:23 51°16.312 2°53.526 12.3 24 20.1 102270 83
2001-07-30 07:45:29 51°16.331 2°53.508 12.1 23 20.1 102270 83
2001-07-30 07:45:33 51°16.344 2°53.497 12.4 20 20.1 102270 83
2001-07-30 07:45:37 51°16.357 2°53.485 12.4 28 20.1 102270 83
2001-07-30 07:45:43 51°16.376 2°53.468 11.6 22 20.1 102270 83
2001-07-30 07:45:49 51°16.395 2°53.451 11.7 17 20.1 102270 83
2001-07-30 07:45:53 51°16.408 2°53.439 11.6 20 20.1 102270 83
2001-07-30 07:45:57 51°16.421 2°53.427 11.5 20 20.1 102270 83
2001-07-30 07:46:03 51°16.44 2°53.41 11.3 22 20.1 102260 83
2001-07-30 07:46:07 51°16.452 2°53.399 12 23 20.1 102260 83
2001-07-30 07:46:13 51°16.472 2°53.382 11.9 25 20.1 102270 83
2001-07-30 07:46:19 51°16.491 2°53.367 12.3 23 20.1 102270 83
2001-07-30 07:46:23 51°16.505 2°53.356 13.2 25 20.1 102270 83
2001-07-30 07:46:27 51°16.518 2°53.346 12.9 25 20.1 102270 83
2001-07-30 07:46:33 51°16.537 2°53.33 11.2 20 20 102270 83
2001-07-30 07:46:37 51°16.55 2°53.318 11.6 21 20 102270 83
2001-07-30 07:46:43 51°16.569 2°53.301 11.8 20 20 102270 83
2001-07-30 07:46:47 51°16.582 2°53.289 12.1 18 20 102270 83
2001-07-30 07:46:53 51°16.601 2°53.272 12.5 23 20 102270 83
2001-07-30 07:46:59 51°16.62 2°53.255 12.4 22 20 102270 83
2001-07-30 07:47:03 51°16.633 2°53.243 12.2 21 20 102270 83
2001-07-30 07:47:08 51°16.649 2°53.228 11.9 17 20 102270 83
2001-07-30 07:47:13 51°16.664 2°53.213 11.9 20 20 102270 83
2001-07-30 07:47:17 51°16.677 2°53.201 12.5 20 20 102270 83
2001-07-30 07:47:23 51°16.695 2°53.183 12.4 22 20 102270 83
2001-07-30 07:47:27 51°16.708 2°53.171 11.9 19 20 102270 83
2001-07-30 07:47:33 51°16.727 2°53.153 12.1 20 20 102270 84
2001-07-30 07:47:37 51°16.739 2°53.14 12.3 19 20 102270 84
2001-07-30 07:47:43 51°16.758 2°53.121 12.3 18 20 102260 84
2001-07-30 07:47:48 51°16.773 2°53.106 11.9 20 20 102260 84
2001-07-30 07:47:53 51°16.789 2°53.091 13.1 21 20 102270 84
2001-07-30 07:47:59 51°16.808 2°53.073 12.2 18 20 102270 84
2001-07-30 07:48:03 51°16.82 2°53.061 11.3 24 19.9 102270 84
2001-07-30 07:48:07 51°16.833 2°53.049 12.2 22 19.9 102270 84
2001-07-30 07:48:13 51°16.852 2°53.031 12.6 23 20 102270 84
2001-07-30 07:48:19 51°16.871 2°53.014 11.7 20 20 102270 84
2001-07-30 07:48:23 51°16.883 2°53.002 11.5 18 19.9 102260 84
2001-07-30 07:48:27 51°16.896 2°52.99 12.2 22 19.9 102260 84
2001-07-30 07:48:33 51°16.914 2°52.971 11.9 18 19.9 102270 84
2001-07-30 07:48:38 51°16.93 2°52.956 12.3 21 19.9 102270 84
2001-07-30 07:48:43 51°16.945 2°52.94 13 16 19.9 102270 84
2001-07-30 07:48:47 51°16.957 2°52.927 12.3 18 19.9 102270 84
2001-07-30 07:48:53 51°16.976 2°52.908 12.5 23 19.9 102270 84
2001-07-30 07:48:57 51°16.989 2°52.896 11.9 21 19.9 102270 84
2001-07-30 07:49:03 51°17.008 2°52.878 12 22 19.9 102270 84
2001-07-30 07:49:09 51°17.028 2°52.86 12.1 17 19.9 102270 84
2001-07-30 07:49:13 51°17.041 2°52.848 12.2 17 19.9 102270 84
2001-07-30 07:49:17 51°17.054 2°52.837 12.4 18 19.9 102270 84
2001-07-30 07:49:23 51°17.073 2°52.818 12.3 18 19.9 102270 84
2001-07-30 07:49:27 51°17.086 2°52.806 12.2 20 19.9 102270 84
2001-07-30 07:49:33 51°17.105 2°52.788 12.7 17 19.9 102270 84
2001-07-30 07:49:38 51°17.122 2°52.773 12.7 18 19.9 102270 84
2001-07-30 07:49:43 51°17.138 2°52.759 13.5 20 19.9 102270 84
2001-07-30 07:49:49 51°17.157 2°52.74 11.9 18 19.9 102270 84
2001-07-30 07:49:53 51°17.17 2°52.727 12.7 15 19.9 102270 84
2001-07-30 07:49:57 51°17.182 2°52.713 12.9 15 19.9 102270 84
2001-07-30 07:50:03 51°17.199 2°52.692 13.5 16 19.9 102270 84
2001-07-30 07:50:09 51°17.216 2°52.67 12.6 16 19.9 102270 84
2001-07-30 07:50:13 51°17.228 2°52.655 12.4 14 19.9 102270 84
2001-07-30 07:50:17 51°17.239 2°52.641 13.4 17 19.9 102270 84
2001-07-30 07:50:23 51°17.256 2°52.618 12.8 16 19.9 102270 84
2001-07-30 07:50:27 51°17.267 2°52.603 12.4 13 19.9 102270 84
2001-07-30 07:50:33 51°17.284 2°52.58 12 11 19.8 102260 84
2001-07-30 07:50:38 51°17.297 2°52.56 12.2 14 19.8 102260 84
2001-07-30 07:50:43 51°17.311 2°52.541 12.8 12 19.8 102270 84
2001-07-30 07:50:49 51°17.327 2°52.517 12.6 12 19.8 102270 84
2001-07-30 07:50:53 51°17.337 2°52.5 13 15 19.8 102260 84
2001-07-30 07:50:57 51°17.348 2°52.484 13.9 12 19.8 102260 84
2001-07-30 07:51:03 51°17.363 2°52.46 13.8 15 19.8 102270 84
2001-07-30 07:51:09 51°17.38 2°52.436 13.4 16 19.8 102270 84
2001-07-30 07:51:13 51°17.391 2°52.421 13.7 15 19.8 102270 84
2001-07-30 07:51:19 51°17.407 2°52.397 12.2 11 19.8 102270 84
2001-07-30 07:51:23 51°17.417 2°52.38 12.2 13 19.9 102270 84
2001-07-30 07:51:29 51°17.433 2°52.356 13 12 19.9 102270 84
2001-07-30 07:51:33 51°17.443 2°52.34 12.4 14 19.8 102270 84
2001-07-30 07:51:39 51°17.459 2°52.316 13 10 19.8 102270 84
2001-07-30 07:51:43 51°17.47 2°52.3 13.1 14 19.8 102270 84
2001-07-30 07:51:47 51°17.481 2°52.284 13.3 13 19.8 102270 84
2001-07-30 07:51:53 51°17.497 2°52.26 12.6 11 19.8 102270 84
2001-07-30 07:51:58 51°17.51 2°52.24 12.8 13 19.8 102270 84
2001-07-30 07:52:03 51°17.523 2°52.219 12.6 12 19.8 102270 84
2001-07-30 07:52:09 51°17.538 2°52.195 11.9 12 19.8 102270 84
2001-07-30 07:52:13 51°17.548 2°52.178 12.7 14 19.8 102260 84
2001-07-30 07:52:17 51°17.559 2°52.161 12.8 14 19.8 102260 84
2001-07-30 07:52:23 51°17.574 2°52.136 12.6 12 19.8 102270 84
2001-07-30 07:52:27 51°17.584 2°52.119 12.9 11 19.8 102270 84
2001-07-30 07:52:33 51°17.599 2°52.093 12.8 14 19.8 102270 84
2001-07-30 07:52:39 51°17.614 2°52.067 12.5 13 19.8 102270 84
2001-07-30 07:52:43 51°17.623 2°52.05 13.4 16 19.8 102270 84
2001-07-30 07:52:47 51°17.633 2°52.033 12.8 10 19.8 102270 84
2001-07-30 07:52:53 51°17.648 2°52.006 12.5 9 19.8 102270 84
2001-07-30 07:52:57 51°17.657 2°51.988 12.5 10 19.8 102270 84
2001-07-30 07:53:03 51°17.671 2°51.962 13.9 14 19.8 102270 84
2001-07-30 07:53:09 51°17.685 2°51.935 12.4 13 19.8 102270 84
2001-07-30 07:53:13 51°17.694 2°51.917 12.6 12 19.8 102270 85
2001-07-30 07:53:19 51°17.707 2°51.89 11.9 12 19.8 102270 85
2001-07-30 07:53:23 51°17.715 2°51.871 12.4 11 19.8 102270 85
2001-07-30 07:53:27 51°17.723 2°51.852 12.1 10 19.8 102270 85
2001-07-30 07:53:33 51°17.733 2°51.822 11.5 9 19.8 102270 85
2001-07-30 07:53:37 51°17.739 2°51.802 12.1 5 19.8 102270 85
2001-07-30 07:53:43 51°17.747 2°51.771 13 3 19.8 102270 85
2001-07-30 07:53:49 51°17.753 2°51.739 12.8 6 19.8 102270 85
2001-07-30 07:53:53 51°17.757 2°51.718 13 6 19.8 102270 85
2001-07-30 07:53:57 51°17.761 2°51.697 13.3 8 19.8 102270 85
2001-07-30 07:54:03 51°17.766 2°51.665 13 1 19.8 102270 85
2001-07-30 07:54:07 51°17.77 2°51.644 12.3 6 19.8 102270 85
2001-07-30 07:54:13 51°17.776 2°51.613 13 7 19.8 102270 84
2001-07-30 07:54:19 51°17.783 2°51.581 12 10 19.8 102270 84
2001-07-30 07:54:23 51°17.787 2°51.561 13 7 19.8 102270 84
2001-07-30 07:54:29 51°17.795 2°51.529 12.5 9 19.8 102270 84
2001-07-30 07:54:33 51°17.8 2°51.509 12.1 8 19.7 102270 84
2001-07-30 07:54:37 51°17.805 2°51.488 12.1 8 19.7 102270 84
2001-07-30 07:54:43 51°17.812 2°51.456 13 7 19.7 102270 84
2001-07-30 07:54:47 51°17.817 2°51.435 12.7 6 19.7 102270 84
2001-07-30 07:54:53 51°17.824 2°51.404 12.3 7 19.7 102280 84
2001-07-30 07:54:59 51°17.831 2°51.372 12 5 19.7 102280 84
2001-07-30 07:55:03 51°17.835 2°51.351 11.8 5 19.7 102280 84
2001-07-30 07:55:07 51°17.84 2°51.33 12.6 8 19.7 102280 84
2001-07-30 07:55:13 51°17.847 2°51.298 12.8 2 19.7 102270 84
2001-07-30 07:55:19 51°17.853 2°51.266 13 3 19.7 102270 84
2001-07-30 07:55:23 51°17.858 2°51.245 12.6 7 19.7 102270 85
2001-07-30 07:55:29 51°17.865 2°51.214 11.3 3 19.7 102270 85
2001-07-30 07:55:33 51°17.87 2°51.193 12.3 4 19.7 102270 85
2001-07-30 07:55:39 51°17.877 2°51.162 12.7 6 19.7 102270 85
2001-07-30 07:55:43 51°17.883 2°51.141 12.9 8 19.7 102270 85
2001-07-30 07:55:47 51°17.887 2°51.12 12.9 4 19.7 102270 85
2001-07-30 07:55:53 51°17.894 2°51.089 12 3 19.7 102280 85
2001-07-30 07:55:57 51°17.898 2°51.068 12.3 5 19.7 102280 85
2001-07-30 07:56:03 51°17.904 2°51.036 12.4 6 19.7 102270 85
2001-07-30 07:56:07 51°17.908 2°51.015 12.4 5 19.7 102270 85
2001-07-30 07:56:13 51°17.915 2°50.983 12 6 19.7 102280 85
2001-07-30 07:56:19 51°17.922 2°50.951 12.7 8 19.7 102280 85
2001-07-30 07:56:23 51°17.926 2°50.93 11.6 7 19.7 102270 85
2001-07-30 07:56:27 51°17.932 2°50.909 12 10 19.7 102270 85
2001-07-30 07:56:33 51°17.94 2°50.878 12.6 7 19.7 102280 85
2001-07-30 07:56:37 51°17.945 2°50.857 12 8 19.7 102280 85
2001-07-30 07:56:43 51°17.954 2°50.826 12.4 11 19.7 102280 85
2001-07-30 07:56:49 51°17.963 2°50.796 12.1 10 19.7 102280 85
2001-07-30 07:56:53 51°17.969 2°50.775 12.2 10 19.7 102280 85
2001-07-30 07:56:57 51°17.976 2°50.754 11.7 7 19.7 102280 85
2001-07-30 07:57:03 51°17.984 2°50.723 11.4 8 19.7 102280 85
2001-07-30 07:57:07 51°17.99 2°50.703 11.5 6 19.7 102280 85
2001-07-30 07:57:13 51°17.998 2°50.671 11.7 3 19.6 102280 85
2001-07-30 07:57:19 51°18.006 2°50.64 12 6 19.6 102280 85
2001-07-30 07:57:23 51°18.012 2°50.62 12.3 6 19.6 102280 85
2001-07-30 07:57:29 51°18.021 2°50.589 11.9 7 19.6 102280 85
2001-07-30 07:57:33 51°18.027 2°50.568 12.1 8 19.6 102270 85
2001-07-30 07:57:37 51°18.033 2°50.547 12.5 8 19.6 102270 85
2001-07-30 07:57:43 51°18.042 2°50.517 12.2 11 19.6 102280 85
2001-07-30 07:57:47 51°18.048 2°50.496 12.1 11 19.6 102280 85
2001-07-30 07:57:53 51°18.058 2°50.466 12 7 19.6 102280 85
2001-07-30 07:57:59 51°18.067 2°50.435 12.1 10 19.6 102280 85
2001-07-30 07:58:03 51°18.074 2°50.415 12.3 11 19.6 102270 85
2001-07-30 07:58:07 51°18.081 2°50.395 12 10 19.6 102270 85